Location: Fredericton
(45.9636°N, 66.6431°W)
Time: 09:55:45
(UTC-03:00)

ISS - Visible Passes

Search period start: 20 May 2019 00:00
Search period end: 30 May 2019 00:00
Orbit: 407 x 410 km, 51.6° (Epoch: 20 May)

Date Brightness Start Highest point End Pass type
(mag) Time Alt. Az. Time Alt. Az. Time Alt. Az.
20 May -1.7 00:52:50 10° WNW 00:55:47 29° N 00:58:44 10° ENE visible
20 May -2.8 02:29:36 10° WNW 02:32:50 48° NNE 02:36:04 10° E visible
20 May -3.2 04:06:19 10° WNW 04:09:21 34° SW 04:12:23 10° SSE visible
20 May -3.6 22:24:30 10° WSW 22:27:48 74° NNW 22:31:06 10° ENE visible
21 May -1.8 00:01:45 10° WNW 00:04:43 30° N 00:07:43 10° ENE visible
21 May -2.3 01:38:43 10° NW 01:41:50 37° NNE 01:42:20 34° NE visible
21 May -3.9 21:33:37 10° SW 21:36:54 70° SSE 21:40:11 10° ENE visible
21 May -2.1 23:10:36 10° W 23:13:40 34° NNW 23:16:44 10° NE visible
22 May -2.0 00:47:46 10° WNW 00:50:47 31° N 00:52:17 21° NE visible
22 May -1.3 02:24:20 10° WNW 02:24:58 15° WNW 02:24:58 15° WNW visible
22 May -2.5 22:19:27 10° W 22:22:37 43° NNW 22:25:49 10° ENE visible
22 May -1.8 23:56:45 10° WNW 23:59:42 29° N 00:02:38 10° ENE visible
23 May -2.1 01:33:25 10° WNW 01:35:21 31° NW 01:35:21 31° NW visible
23 May -1.8 23:05:39 10° WNW 23:08:36 29° N 23:11:33 10° ENE visible
24 May -2.6 00:42:31 10° NW 00:45:41 42° NNE 00:45:51 41° NNE visible
24 May -1.9 22:14:29 10° WNW 22:17:30 32° N 22:20:31 10° ENE visible
24 May -2.2 23:51:33 10° NW 23:54:37 34° N 23:56:25 19° ENE visible
25 May -1.5 01:28:05 10° WNW 01:29:08 19° WNW 01:29:08 19° WNW visible
25 May -1.9 23:00:32 10° WNW 23:03:30 30° N 23:06:29 10° ENE visible
26 May -3.0 00:37:08 10° WNW 00:39:44 50° NW 00:39:44 50° NW visible
26 May -1.8 22:09:25 10° WNW 22:12:22 29° N 22:15:19 10° ENE visible
26 May -3.0 23:46:11 10° WNW 23:49:25 48° NNE 23:50:22 35° ENE visible
27 May -1.0 01:22:53 10° WNW 01:23:04 11° WNW 01:23:04 11° WNW visible
27 May -2.4 22:55:12 10° NW 22:58:20 37° NNE 23:01:01 13° E visible
28 May -2.4 00:31:46 10° WNW 00:33:44 31° W 00:33:44 31° W visible
28 May -2.1 22:04:11 10° WNW 22:07:11 31° N 22:10:12 10° ENE visible
28 May -3.9 23:40:44 10° WNW 23:44:04 87° NE 23:44:23 70° ESE visible
29 May -3.3 22:49:44 10° WNW 22:53:01 57° NNE 22:55:05 20° E visible
